Location: Daouli
(14.8671°N, 3.2030°W)
Time: 01:38:26
(UTC+00:00)

Delta 7925 Rocket - Pass Details

Date: 29 October 2020
Orbit: 645 x 1648 km, 26.3° (Epoch: 02 December)

Event Time Altitude Azimuth Distance (km) Brightness Sun altitude
Rises 18:31:37 0° 254° (WSW) 4,052 9.4 -11.8°
Reaches altitude 10° 18:34:47 10° 256° (WSW) 2,921 8.0 -12.5°
Maximum altitude 18:41:42 66° 338° (NNW) 968 4.0 -14.2°
Enters shadow 18:45:34 20° 56° (NE) 1,763 4.8 -15.1°
